Weather History for Teterboro, NJ

Change the Weather History Date:

Saturday, February 16, 2013

  Actual Average Record
Temperature  
Mean Temperature 34 °F -  
Max Temperature 37 °F 40 °F 57 °F (1999)
Min Temperature 30 °F 25 °F 7 °F (2003)
Degree Days  
Heating Degree Days 30    
Moisture  
Dew Point 27 °F    
Average Humidity 73    
Maximum Humidity 93    
Minimum Humidity 50    
Precipitation  
Precipitation 0.05 in - - ()
Sea Level Pressure  
Sea Level Pressure 29.91 in    
Wind  
Wind Speed 8 mph (North)    
Max Wind Speed 13 mph    
Max Gust Speed 18 mph    
Visibility 9 miles    
Events Rain , Snow    
Averages and records for this station are not official NWS values.
T = Trace of Precipitation, MM = Missing Value Source: NWS Daily Summary

Daily Weather History Graph

Daily Weather History Graph

Search for Another Location

Airport:

Trip Planner

Search our weather history database for the weather conditions in past years. The results will help you decide how hot, cold, wet, or windy it might be!

Date:

Astronomy

Feb. 16, 2013 Rise Set
Actual Time 6:48 AM EST 5:32 PM EST
Civil Twilight 6:20 AM EST 6:00 PM EST
Nautical Twilight 5:48 AM EST 6:32 PM EST
Astronomical Twilight 5:16 AM EST 7:04 PM EST
Moon 9:57 AM EST (2/16) No Moon Set
Length of Visible Light 11h 39m
Length of Day
10h 43m
Waxing Crescent, 39% of the Moon is Illuminated
Feb 16
Waxing Crescent
Feb 17
First Quarter
Feb 25
Full
Mar 4
Last Quarter
Mar 11
New

Hourly Weather History & Observations

Time (EST) Temp. Windchill Dew Point Humidity Pressure Visibility Wind Dir Wind Speed Gust Speed Precip Events Conditions
12:51 AM 37.0 °F 29.8 °F 34.0 °F 89% 29.97 in 10.0 mi NNW 10.4 mph - 0.00 in Rain Light Rain
1:37 AM 35.6 °F 29.9 °F 33.8 °F 93% 29.96 in 10.0 mi NNW 6.9 mph - 0.02 in Rain Light Rain
1:51 AM 36.0 °F 32.1 °F 34.0 °F 93% 29.96 in 5.0 mi NNW 4.6 mph - 0.02 in Rain Light Rain
2:01 AM 35.6 °F 29.9 °F 33.8 °F 93% 29.95 in 9.0 mi North 6.9 mph - 0.01 in Rain Light Rain
2:17 AM 35.6 °F 31.7 °F 33.8 °F 93% 29.95 in 7.0 mi NNW 4.6 mph - 0.02 in Rain Light Rain
2:34 AM 35.6 °F 30.7 °F 33.8 °F 93% 29.95 in 7.0 mi North 5.8 mph - 0.02 in Rain Light Rain
2:51 AM 36.0 °F 32.1 °F 34.0 °F 93% 29.94 in 7.0 mi North 4.6 mph - 0.03 in Rain Light Rain
3:51 AM 35.1 °F 30.1 °F 32.0 °F 89% 29.93 in 7.0 mi NNE 5.8 mph - 0.00 in Rain Light Rain
4:51 AM 35.1 °F 30.1 °F 32.0 °F 89% 29.94 in 10.0 mi North 5.8 mph - 0.00 in   Overcast
5:43 AM 33.8 °F 27.0 °F 30.2 °F 87% 29.95 in 5.0 mi North 8.1 mph - 0.00 in Snow Light Snow
5:51 AM 34.0 °F 28.0 °F 30.9 °F 89% 29.95 in 5.0 mi North 6.9 mph - 0.00 in Snow Light Snow
5:59 AM 33.8 °F 27.0 °F 30.2 °F 87% 29.95 in 5.0 mi North 8.1 mph - 0.00 in Snow Light Snow
6:51 AM 34.0 °F 28.0 °F 30.9 °F 89% 29.94 in 10.0 mi North 6.9 mph - 0.00 in   Overcast
7:51 AM 34.0 °F 28.0 °F 30.0 °F 85% 29.96 in 10.0 mi North 6.9 mph - N/A   Overcast
8:51 AM 34.0 °F 28.8 °F 28.9 °F 82% 29.96 in 10.0 mi North 5.8 mph - N/A   Overcast
9:35 AM 35.6 °F 29.2 °F 28.4 °F 75% 29.95 in 10.0 mi North 8.1 mph - N/A   Overcast
9:42 AM 35.6 °F 29.2 °F 26.6 °F 70% 29.95 in 10.0 mi North 8.1 mph - N/A   Overcast
9:51 AM 35.1 °F 28.6 °F 28.0 °F 76% 29.94 in 10.0 mi North 8.1 mph - N/A   Overcast
10:04 AM 35.6 °F 29.2 °F 28.4 °F 75% 29.94 in 10.0 mi North 8.1 mph - N/A   Overcast
10:51 AM 36.0 °F 28.5 °F 26.1 °F 67% 29.94 in 10.0 mi NNW 10.4 mph 17.3 mph N/A   Overcast
11:43 AM 37.4 °F 30.8 °F 26.6 °F 65% 29.91 in 10.0 mi North 9.2 mph - N/A   Mostly Cloudy
11:51 AM 37.0 °F 30.4 °F 28.0 °F 70% 29.91 in 10.0 mi NNW 9.2 mph - N/A   Mostly Cloudy
11:54 AM 37.4 °F 31.4 °F 26.6 °F 65% 29.91 in 10.0 mi NNW 8.1 mph - N/A   Mostly Cloudy
12:51 PM 37.9 °F 32.1 °F 26.1 °F 62% 29.90 in 10.0 mi North 8.1 mph - N/A   Overcast
1:51 PM 37.9 °F 31.5 °F 25.0 °F 60% 29.88 in 10.0 mi North 9.2 mph - N/A   Mostly Cloudy
2:51 PM 37.9 °F 31.5 °F 21.0 °F 51% 29.85 in 10.0 mi North 9.2 mph - N/A   Scattered Clouds
3:51 PM 37.0 °F 30.4 °F 21.9 °F 54% 29.86 in 10.0 mi NW 9.2 mph - N/A   Overcast
4:51 PM 36.0 °F 29.6 °F 19.9 °F 52% 29.84 in 10.0 mi NNW 8.1 mph - N/A   Overcast
5:51 PM 36.0 °F 31.1 °F 21.0 °F 55% 29.84 in 10.0 mi North 5.8 mph - N/A   Overcast
6:51 PM 34.0 °F 25.0 °F 19.9 °F 56% 29.83 in 10.0 mi North 12.7 mph - N/A   Overcast
7:51 PM 34.0 °F 26.6 °F 19.0 °F 54% 29.83 in 10.0 mi North 9.2 mph 18.4 mph N/A   Overcast
8:51 PM 32.0 °F 23.0 °F 17.1 °F 54% 29.82 in 10.0 mi North 11.5 mph 17.3 mph N/A   Overcast
9:51 PM 32.0 °F 23.0 °F 16.0 °F 52% 29.81 in 10.0 mi North 11.5 mph - N/A   Overcast
10:51 PM 32.0 °F 23.0 °F 15.1 °F 50% 29.77 in 10.0 mi North 11.5 mph - N/A   Overcast
11:51 PM 30.9 °F 22.2 °F 14.0 °F 50% 29.74 in 10.0 mi North 10.4 mph - N/A   Overcast